sat.trackr.live / text

‹ back to catalog

STARLINK-35100

NORAD 65542 · 2025-200Y

PAYLOAD ACTIVE UNKNOWN

§ Identity

Operator
Country
US
Launch date
2025-09-06
Launch site
AFWTR
Launch vehicle
Mass (kg)
RCS (m²)

Purposes: comms

External: N2YO · Heavens-Above · Gunter

§ Orbital elements

Epoch: 2026-09-20T21:47:06.319392Z

Period
93.91 min
Inclination
97.2871°
Eccentricity
0.0000524
Mean motion
15.33447105 rev/d
Perigee alt
465.2 km
Apogee alt
465.9 km
Semi-major
6,843.7 km
B*
4.4186e-4
RAAN
330.2879°
Arg perigee
109.8599°
Mean anomaly
250.2700°
Rev number
5,870

§ Raw data

STARLINK-351001 65542U 25200Y   26263.90771203  .00014218  00000+0  44186-3 0  99902 65542  97.2871 330.2879 0000524 109.8599 250.2700 15.33447105 58701

JSON: /api/v1/satellites/65542 · /tle

For live sub-satellite position, see the globe view (requires WebGL).

§ Visibility from observer

Set your observer location to see the next 7 days of passes ≥ 10°. The values pass through the URL so the page stays shareable.

No JS? Fill the form by hand. The geolocation button needs JavaScript.